STARLINK-5062 (55637 NORAD) Tracking and Keplerian Element Data

This shows tracking and keplerian element data for the satellite.

Feedback or suggestion? Click here.




ElementValue
Catalog55637
NameSTARLINK-5062
Epoch Orbit130
Epoch Day62.91667824
Epoch Year2023
RAAN110.2002
Inclination70
Eccentricity0.0003482
Argument of Perigee268.2899
Mean Anonmoly327.1319
Mean Motion15.74948872
Decay Rate-0.00972875
L11 55637U 23021K 23062.91667824 -.00972875 00000+0 -73249-2 0 9996
L22 55637 70.0000 110.2002 0003482 268.2899 327.1319 15.74948872 1307



Live tracking and technical data element details for STARLINK-5062 (NORAD 55637). STARLINK-5062 can be tracked NOW for your location showing map with azimuth and elevation plus other details from your city location.







IsCatalogInMostPopularTable: catalog: 55637, numindb: 1
Update: records affected: 1



GetName: 55637 STARLINK-5062

Hit Count: updated at: Wed, 22 Mar 2023 15:07:33 GMT